Weather History for Plainview, TX

Change the Weather History Date:

Tuesday, June 10, 2014

  Actual Average Record
Temperature  
Mean Temperature 67 °F -  
Max Temperature 80 °F 85 °F 108 °F (1981)
Min Temperature 54 °F 61 °F 45 °F (1955)
Cooling Degree Days 2    
Growing Degree Days 17 (Base 50)    
Moisture  
Dew Point 52 °F    
Average Humidity 64    
Maximum Humidity 86    
Minimum Humidity 32    
Precipitation  
Precipitation 0.00 in - - ()
Sea Level Pressure  
Sea Level Pressure 30.00 in    
Wind  
Wind Speed 8 mph (WNW)    
Max Wind Speed 13 mph    
Max Gust Speed 17 mph    
Visibility 10 miles    
Events      
Averages and records for this station are not official NWS values.
T = Trace of Precipitation, MM = Missing Value Source: NWS Daily Summary

Daily Weather History Graph

Daily Weather History Graph

Search for Another Location

Airport:

Trip Planner

Search our weather history database for the weather conditions in past years. The results will help you decide how hot, cold, wet, or windy it might be!

Date:

Astronomy

Jun. 10, 2014 Rise Set
Actual Time 6:34 AM CDT 8:58 PM CDT
Civil Twilight 6:05 AM CDT 9:27 PM CDT
Nautical Twilight 5:29 AM CDT 10:03 PM CDT
Astronomical Twilight 4:50 AM CDT 10:42 PM CDT
Moon 6:31 PM CDT (6/10) 4:34 AM CDT (6/10)
Length of Visible Light 15h 21m
Length of Day
14h 23m
Waxing Gibbous, 92% of the Moon is Illuminated
Jun 10
Waxing Gibbous
Jun 12
Full
Jun 19
Last Quarter
Jun 27
New
Jul 5
First Quarter

Hourly Weather History & Observations

Time (CDT) Temp. Dew Point Humidity Pressure Visibility Wind Dir Wind Speed Gust Speed Precip Events Conditions
12:15 AM 55.4 °F 50.7 °F 84% 30.02 in 10.0 mi WNW 5.8 mph - N/A   Clear
12:35 AM 54.9 °F 50.7 °F 86% 30.02 in 10.0 mi NW 6.9 mph - N/A   Clear
12:55 AM 54.9 °F 50.5 °F 85% 30.02 in 10.0 mi NW 6.9 mph - N/A   Clear
1:15 AM 55.2 °F 50.4 °F 84% 30.02 in 10.0 mi NW 6.9 mph - N/A   Clear
1:35 AM 54.9 °F 50.4 °F 85% 30.02 in 10.0 mi NW 9.2 mph - N/A   Clear
1:55 AM 54.9 °F 50.5 °F 85% 30.02 in 10.0 mi NW 8.1 mph - N/A   Clear
2:15 AM 54.9 °F 50.4 °F 85% 30.02 in 10.0 mi WNW 6.9 mph - N/A   Clear
2:35 AM 54.9 °F 50.0 °F 84% 30.01 in 10.0 mi NW 10.4 mph - N/A   Clear
2:55 AM 54.9 °F 50.4 °F 85% 30.02 in 10.0 mi NW 10.4 mph - N/A   Clear
3:15 AM 54.9 °F 50.4 °F 85% 30.01 in 10.0 mi NW 10.4 mph - N/A   Clear
3:35 AM 54.9 °F 50.4 °F 85% 30.01 in 10.0 mi NW 11.5 mph - N/A   Clear
3:55 AM 54.9 °F 50.0 °F 84% 30.01 in 10.0 mi NW 11.5 mph - N/A   Clear
4:15 AM 54.9 °F 49.8 °F 83% 30.01 in 10.0 mi NW 11.5 mph - N/A   Clear
4:35 AM 54.9 °F 48.9 °F 80% 30.01 in 10.0 mi NNW 11.5 mph - N/A   Clear
4:55 AM 54.9 °F 48.7 °F 80% 30.01 in 10.0 mi NNW 10.4 mph - N/A   Clear
5:15 AM 54.9 °F 49.1 °F 81% 30.01 in 10.0 mi NNW 12.7 mph - N/A   Clear
5:35 AM 54.9 °F 49.1 °F 81% 30.02 in 10.0 mi NNW 12.7 mph - N/A   Clear
5:55 AM 54.9 °F 49.5 °F 82% 30.02 in 10.0 mi NNW 10.4 mph - N/A   Clear
6:15 AM 54.9 °F 50.0 °F 84% 30.02 in 10.0 mi NW 8.1 mph - N/A   Clear
6:35 AM 54.9 °F 50.0 °F 84% 30.02 in 10.0 mi NNW 9.2 mph - N/A   Clear
6:55 AM 54.9 °F 50.0 °F 84% 30.03 in 10.0 mi NNW 10.4 mph - N/A   Clear
7:15 AM 54.9 °F 50.0 °F 84% 30.03 in 10.0 mi NNW 10.4 mph - N/A   Clear
7:35 AM 54.9 °F 49.5 °F 82% 30.04 in 10.0 mi NNW 8.1 mph - N/A   Clear
7:55 AM 56.8 °F 51.1 °F 81% 30.04 in 10.0 mi NNW 9.2 mph - N/A   Clear
8:15 AM 57.4 °F 50.5 °F 78% 30.04 in 10.0 mi NNW 10.4 mph - N/A   Clear
8:35 AM 59.7 °F 51.8 °F 75% 30.04 in 10.0 mi NNW 12.7 mph - N/A   Clear
8:55 AM 59.9 °F 51.4 °F 74% 30.05 in 10.0 mi NNW 12.7 mph - N/A   Clear
9:15 AM 61.0 °F 51.3 °F 70% 30.05 in 10.0 mi NNW 11.5 mph - N/A   Clear
9:35 AM 62.6 °F 51.4 °F 67% 30.06 in 10.0 mi North 11.5 mph - N/A   Clear
9:55 AM 63.0 °F 50.7 °F 64% 30.06 in 10.0 mi NNW 11.5 mph - N/A   Clear
10:15 AM 64.4 °F 51.3 °F 62% 30.06 in 10.0 mi North 11.5 mph - N/A   Clear
10:35 AM 66.6 °F 52.3 °F 60% 30.06 in 10.0 mi NNW 8.1 mph - N/A   Clear
10:55 AM 67.5 °F 52.5 °F 59% 30.06 in 10.0 mi North 9.2 mph - N/A   Clear
11:15 AM 70.0 °F 53.2 °F 55% 30.06 in 10.0 mi NNW 6.9 mph - N/A   Clear
11:35 AM 70.0 °F 52.7 °F 54% 30.05 in 10.0 mi NNW 6.9 mph - N/A   Clear
11:55 AM 70.0 °F 52.9 °F 55% 30.05 in 10.0 mi NW 5.8 mph - N/A   Clear
12:15 PM 70.0 °F 52.2 °F 53% 30.05 in 10.0 mi NW 5.8 mph - N/A   Clear
12:35 PM 71.1 °F 51.6 °F 50% 30.04 in 10.0 mi WNW 6.9 mph - N/A   Clear
12:55 PM 72.5 °F 50.2 °F 45% 30.04 in 10.0 mi NW 5.8 mph - N/A   Clear
1:15 PM 74.7 °F 52.7 °F 46% 30.04 in 10.0 mi West 3.5 mph - N/A   Clear
1:35 PM 75.2 °F 51.8 °F 44% 30.03 in 10.0 mi West 6.9 mph - N/A   Clear
2:15 PM 75.2 °F 51.4 °F 43% 30.02 in 10.0 mi WNW 5.8 mph - N/A   Clear
2:55 PM 77.5 °F 50.5 °F 39% 30.01 in 10.0 mi West 6.9 mph - N/A   Clear
3:35 PM 77.5 °F 50.2 °F 38% 29.99 in 10.0 mi WSW 9.2 mph - N/A   Clear
3:55 PM 78.3 °F 47.3 °F 34% 29.99 in 10.0 mi West 3.5 mph - N/A   Clear
4:15 PM 78.4 °F 48.2 °F 34% 29.98 in 10.0 mi WNW 5.8 mph - N/A   Clear
4:55 PM 80.1 °F 48.9 °F 34% 29.96 in 10.0 mi WNW 5.8 mph 17.3 mph N/A   Clear
5:15 PM 80.1 °F 49.6 °F 34% 29.95 in 10.0 mi WSW 8.1 mph - N/A   Clear
5:35 PM 80.1 °F 48.2 °F 33% 29.95 in 10.0 mi West 5.8 mph - N/A   Clear
5:55 PM 80.1 °F 48.0 °F 32% 29.94 in 10.0 mi WSW 6.9 mph - N/A   Clear
6:35 PM 80.1 °F 49.3 °F 34% 29.93 in 10.0 mi SW 4.6 mph - N/A   Clear
6:55 PM 80.1 °F 48.9 °F 34% 29.92 in 10.0 mi SSW 5.8 mph - N/A   Clear
7:15 PM 80.1 °F 49.5 °F 34% 29.92 in 10.0 mi SW 5.8 mph - N/A   Clear
7:35 PM 79.2 °F 51.8 °F 38% 29.92 in 10.0 mi SSW 5.8 mph - N/A   Clear
7:55 PM 77.5 °F 50.7 °F 39% 29.92 in 10.0 mi South 5.8 mph - N/A   Clear
8:15 PM 77.2 °F 55.0 °F 46% 29.93 in 10.0 mi South 5.8 mph - N/A   Clear
8:35 PM 75.2 °F 57.2 °F 53% 29.93 in 10.0 mi South 5.8 mph - N/A   Clear
8:55 PM 72.5 °F 59.4 °F 63% 29.93 in 10.0 mi South 4.6 mph - N/A   Clear
9:15 PM 70.0 °F 58.3 °F 66% 29.93 in 10.0 mi SSE 5.8 mph - N/A   Clear
9:35 PM 70.0 °F 57.7 °F 65% 29.93 in 10.0 mi SE 6.9 mph - N/A   Clear
9:55 PM 70.0 °F 59.9 °F 70% 29.93 in 10.0 mi SSE 8.1 mph - N/A   Clear
10:15 PM 68.9 °F 58.8 °F 70% 29.93 in 10.0 mi SSE 9.2 mph - N/A   Clear
10:35 PM 67.5 °F 58.1 °F 72% 29.93 in 10.0 mi SSE 6.9 mph - N/A   Clear
10:55 PM 67.5 °F 57.6 °F 70% 29.93 in 10.0 mi SSE 8.1 mph - N/A   Clear
11:15 PM 64.9 °F 56.7 °F 74% 29.94 in 10.0 mi SSE 6.9 mph - N/A   Clear
11:35 PM 63.9 °F 56.7 °F 77% 29.94 in 10.0 mi SSE 6.9 mph - N/A   Clear
11:55 PM 63.5 °F 56.3 °F 77% 29.94 in 10.0 mi South 8.1 mph - N/A   Clear